Evergreen, AL

3:07 AM CDT on July 21, 2017 (GMT -0500)
Middleton

Weather History for KGZH - October, 2012

Change the Weather History Date:

Thursday, October 11, 2012

  Actual Average (KPRN) Record (KPRN)
Temperature  
Mean Temperature 68 °F -  
Max Temperature 82 °F 80 °F 90 °F (2014)
Min Temperature 55 °F 54 °F 39 °F (1971)
Cooling Degree Days 4    
Growing Degree Days 18 (Base 50)    
Moisture  
Dew Point 58 °F    
Average Humidity 85    
Maximum Humidity 96    
Minimum Humidity 47    
Precipitation  
Precipitation 0.00 in - - ()
Sea Level Pressure  
Sea Level Pressure 30.21 in    
Wind  
Wind Speed 1 mph (NNE)    
Max Wind Speed 5 mph    
Max Gust Speed -    
Visibility 4 miles    
Events      
Averages and records for this station are not official NWS values.
T = Trace of Precipitation, MM = Missing Value Source: NWS Daily Summary

Daily Weather History Graph

Daily Weather History Graph

Search for Another Location

Airport or City:

Trip Planner

Search our weather history database for the weather conditions in past years. The results will help you decide how hot, cold, wet, or windy it might be!

Date:

Astronomy

Oct. 11, 2012 Rise Set
Actual Time 6:48 AM CDT 6:20 PM CDT
Civil Twilight 6:24 AM CDT 6:44 PM CDT
Nautical Twilight 5:56 AM CDT 7:12 PM CDT
Astronomical Twilight 5:28 AM CDT 7:40 PM CDT
Moon 2:41 AM CDT (10/11) 3:44 PM CDT (10/11)
Length of Visible Light 12h 20m
Length of Day
11h 31m
Waning Crescent, 18% of the Moon is Illuminated
Oct 11
Waning Crescent
Oct 15
New
Oct 21
First Quarter
Oct 29
Full
Nov 6
Last Quarter

Hourly Weather History & Observations

Time (CDT) Temp. Heat Index Dew Point Humidity Pressure Visibility Wind Dir Wind Speed Gust Speed Precip Events Conditions
12:53 AM 61.0 °F - 59.0 °F 93% 30.17 in 5.0 mi NW 3.5 mph - N/A   Scattered Clouds
1:53 AM 60.1 °F - 57.0 °F 90% 30.18 in 2.5 mi Calm Calm - N/A   Clear
2:06 AM 60.8 °F - 57.2 °F 88% 30.18 in 4.0 mi Calm Calm - N/A   Clear
2:25 AM 59.0 °F - 57.2 °F 94% 30.17 in 1.8 mi Calm Calm - N/A   Clear
2:53 AM 57.9 °F - 55.9 °F 93% 30.17 in 0.8 mi Calm Calm - N/A   Clear
3:07 AM 57.2 °F - 55.4 °F 94% 30.18 in 2.5 mi Calm Calm - N/A   Clear
3:16 AM 57.2 °F - 55.4 °F 94% 30.18 in 3.0 mi Calm Calm - N/A   Clear
3:25 AM 57.2 °F - 55.4 °F 94% 30.18 in 1.8 mi Calm Calm - N/A   Clear
3:36 AM 57.2 °F - 55.4 °F 94% 30.18 in 3.0 mi Calm Calm - N/A   Clear
3:53 AM 57.0 °F - 55.9 °F 96% 30.18 in 3.0 mi Calm Calm - N/A   Clear
4:06 AM 57.2 °F - 55.4 °F 94% 30.19 in 2.0 mi Calm Calm - N/A   Clear
4:23 AM 57.2 °F - 55.4 °F 94% 30.19 in 3.0 mi Calm Calm - N/A   Clear
4:53 AM 57.0 °F - 55.0 °F 93% 30.20 in 3.0 mi Calm Calm - N/A   Clear
4:57 AM 57.2 °F - 55.4 °F 94% 30.20 in 1.8 mi Calm Calm - N/A   Clear
5:07 AM 55.4 °F - 53.6 °F 94% 30.20 in 3.0 mi Calm Calm - N/A   Clear
5:28 AM 55.4 °F - 53.6 °F 94% 30.21 in 1.8 mi Calm Calm - N/A   Clear
5:43 AM 55.4 °F - 53.6 °F 94% 30.21 in 3.0 mi Calm Calm - N/A   Clear
5:53 AM 55.9 °F - 54.0 °F 93% 30.21 in 4.0 mi Calm Calm - N/A   Clear
6:21 AM 55.4 °F - 53.6 °F 94% 30.22 in 3.0 mi Calm Calm - N/A   Scattered Clouds
6:24 AM 55.4 °F - 53.6 °F 94% 30.22 in 2.5 mi Calm Calm - N/A   Mostly Cloudy
6:31 AM 55.4 °F - 53.6 °F 94% 30.22 in 1.8 mi Calm Calm - N/A   Scattered Clouds
6:44 AM 55.4 °F - 53.6 °F 94% 30.23 in 3.0 mi Calm Calm - N/A   Scattered Clouds
6:53 AM 55.0 °F - 53.1 °F 93% 30.22 in 3.0 mi Calm Calm - N/A   Partly Cloudy
7:53 AM 60.1 °F - 57.0 °F 90% 30.24 in 3.0 mi Calm Calm - N/A   Partly Cloudy
8:53 AM 66.0 °F - 61.0 °F 84% 30.26 in 7.0 mi Calm Calm - N/A   Clear
9:53 AM 71.1 °F - 62.1 °F 73% 30.27 in 10.0 mi Calm Calm - N/A   Clear
10:53 AM 77.0 °F - 63.0 °F 62% 30.26 in 10.0 mi Calm Calm - N/A   Clear
11:53 AM 79.0 °F - 62.1 °F 56% 30.25 in 10.0 mi Calm Calm - N/A   Partly Cloudy
12:53 PM 82.0 °F 83.0 °F 62.1 °F 51% 30.23 in 10.0 mi Variable 3.5 mph - N/A   Clear
1:53 PM 82.0 °F 82.7 °F 61.0 °F 49% 30.20 in 10.0 mi NE 4.6 mph - N/A   Clear
2:53 PM 82.9 °F 83.7 °F 62.1 °F 49% 30.19 in 10.0 mi North 3.5 mph - N/A   Clear
3:53 PM 82.9 °F 83.3 °F 61.0 °F 47% 30.19 in 10.0 mi Variable 3.5 mph - N/A   Clear
4:53 PM 82.0 °F 83.0 °F 62.1 °F 51% 30.19 in 10.0 mi NE 4.6 mph - N/A   Clear
5:53 PM 78.1 °F - 64.0 °F 62% 30.19 in 10.0 mi ENE 3.5 mph - N/A   Clear
6:53 PM 70.0 °F - 64.9 °F 84% 30.20 in 7.0 mi Calm Calm - N/A   Clear
8:53 PM 64.9 °F - 63.0 °F 93% 30.23 in 4.0 mi Calm Calm - N/A   Clear
9:53 PM 64.0 °F - 61.0 °F 90% 30.25 in 4.0 mi Calm Calm - N/A   Clear
10:29 PM 62.6 °F - 60.8 °F 94% 30.25 in 1.8 mi Calm Calm - N/A   Clear
10:53 PM 63.0 °F - 60.1 °F 90% 30.24 in 3.0 mi Calm Calm - N/A   Clear
11:03 PM 62.6 °F - 60.8 °F 94% 30.24 in 2.5 mi Calm Calm - N/A   Clear
11:16 PM 62.6 °F - 60.8 °F 94% 30.24 in 3.0 mi Calm Calm - N/A   Clear
11:31 PM 62.6 °F - 59.0 °F 88% 30.25 in 2.0 mi Calm Calm - N/A   Clear
11:44 PM 62.6 °F - 59.0 °F 88% 30.24 in 4.0 mi Calm Calm - N/A   Clear
11:53 PM 61.0 °F - 59.0 °F 93% 30.23 in 3.0 mi Calm Calm - N/A   Clear